Location: Chamerau
(49.1969°N, 12.7525°E)
Time: 05:33:01
(UTC+00:00)

Cosmos 1943 Rocket - Pass Details

Date: 18 September 2020
Orbit: 814 x 842 km, 71.0° (Epoch: 27 October)

Event Time Altitude Azimuth Distance (km) Brightness Sun altitude
Exits shadow 22:35:39 17° 36° (NE) 1,987 4.5 -39.1°
Drops below altitude 10° 22:36:54 10° 33° (NNE) 2,445 5.0 -39.1°
Sets 22:39:21 0° 31° (NNE) 3,378 5.9 -39.1°
